Tracking 17886 objects as of 8-December-2016
HD Live streaming from Space Station
objects crossing your sky now

SCOUT X-4 R/B

Track SCOUT X-4 R/B now!
10-day predictions


NORAD ID: 1739
Int'l Code: 1965-093B
Perigee: 673.6 km
Apogee: 783.9 km
Inclination: 59.7 °
Period: 99.2 minutes
Semi major axis: 7099 km
RCS: 0.5409 m2 (medium)
Launch date: November 19, 1965
Source: United States (US)
Launch site: WALLOPS ISLAND (WLPIS)

Note: This is a ROCKET BODY
Your satellite tracking list
Your tracking list is empty





NASA's NSSDC Master Catalog

Two Line Element Set (TLE):
1 01739U 65093B   16343.20180521 -.00000039  00000-0  29215-4 0  9995
2 01739  59.7061   7.8449 0077633 257.4495 101.7856 14.51242335685900
Source of the keplerian elements: AFSPC